"startDT [UTC]","vpos","CH4 [ppm]","stdev(CH4) [ppm]","CO2 [ppm]","stdev(CO2) [ppm]","H2O [ppm]","stdev(H2O)","p_LGR [torr]","T_LGR [C]","mt1_LGR [us]","mt2_LGR [us]","T_ECpre [C]","T_EC1 [C]","T_EC2 [C]","p_inlet [hPa]","p_in [hPa]","p_out [hPa]","T_inlet [C]","RH_inlet [%]","dwpt_inlet [C]","T_vent [C]","RH_vent [%]","dwpt_vent [C]","flow_vent [l min-1]","flow_inlet [l min-1]","dwpt_sample [C]","T_room [C]"
2012-04-17 00:00:00,0.0,1.9235,0.0010,403.12,0.46,185.3,36.6,138.12,28.81,24.62,36.35,0.04,-272.74,-272.74,-54,561,-915,23.7,4.7,-18.9,23.7,4.9,-18.5,5.73,2.23,-24.6,26.9
2012-04-17 00:01:00,0.0,1.9223,0.0009,403.33,0.37,199.9,29.6,138.13,28.80,24.62,36.34,0.04,-272.74,-272.74,-53,560,-915,23.7,4.7,-18.9,23.6,4.9,-18.5,5.73,2.39,-24.7,26.8
2012-04-17 00:02:00,0.0,1.9215,0.0007,403.08,0.44,177.3,33.3,138.13,28.78,24.62,36.35,0.04,-272.74,-272.74,-54,560,-915,23.7,4.7,-18.9,23.6,4.9,-18.5,5.73,2.27,-24.7,26.7
2012-04-17 00:03:00,0.0,1.9216,0.0009,403.11,0.38,167.0,31.8,138.13,28.77,24.62,36.35,0.04,-272.73,-272.74,-53,560,-915,23.6,4.7,-18.9,23.6,4.9,-18.5,5.73,2.35,-24.8,26.6
2012-04-17 00:04:00,0.0,1.9216,0.0010,403.07,0.43,172.6,34.3,138.13,28.75,24.62,36.35,0.04,-272.74,-272.73,-54,560,-915,23.6,4.7,-18.9,23.6,4.9,-18.5,5.73,2.32,-24.8,26.8
2012-04-17 00:05:00,0.0,1.9219,0.0009,403.04,0.43,178.8,30.3,138.13,28.74,24.62,36.35,0.04,-272.74,-272.74,-53,560,-914,23.6,4.7,-19.0,23.6,4.9,-18.6,5.73,2.25,-24.7,27.3
2012-04-17 00:06:00,0.0,1.9225,0.0009,403.15,0.39,174.5,39.8,138.12,28.74,24.62,36.35,0.04,-272.74,-272.74,-54,560,-915,23.6,4.7,-18.9,23.6,4.9,-18.6,5.73,2.33,-24.6,27.6
2012-04-17 00:07:00,0.0,1.9229,0.0009,403.12,0.36,189.2,36.2,138.12,28.74,24.62,36.35,0.04,-272.73,-272.73,-54,560,-914,23.7,4.7,-18.9,23.6,4.9,-18.5,5.73,2.34,-24.5,27.9
2012-04-17 00:08:00,0.0,1.9232,0.0010,403.13,0.37,200.8,36.8,138.11,28.74,24.62,36.35,0.04,-272.74,-272.74,-54,560,-914,23.7,4.7,-18.8,23.7,4.9,-18.4,5.73,2.34,-24.4,28.1
2012-04-17 00:09:00,0.0,1.9238,0.0009,403.15,0.37,207.7,27.8,138.11,28.75,24.62,36.35,0.04,-272.74,-272.74,-54,560,-914,23.8,4.7,-18.7,23.7,4.9,-18.4,5.73,2.33,-24.4,28.2
2012-04-17 00:10:00,0.0,1.9239,0.0009,403.26,0.30,215.5,27.6,138.11,28.76,24.62,36.34,0.04,-272.73,-272.74,-54,560,-914,23.8,4.7,-18.8,23.8,4.9,-18.4,5.73,2.32,-24.3,28.3
2012-04-17 00:11:00,0.0,1.9240,0.0009,403.21,0.38,229.2,31.4,138.10,28.78,24.62,36.34,0.04,-272.74,-272.74,-53,559,-914,23.8,4.7,-18.8,23.8,4.9,-18.4,5.73,2.32,-24.2,28.4
2012-04-17 00:12:00,0.0,1.9237,0.0009,403.20,0.38,231.7,30.5,138.10,28.79,24.62,36.34,0.04,-272.74,-272.74,-53,560,-914,23.8,4.7,-18.7,23.8,4.9,-18.3,5.73,2.30,-24.1,28.5
2012-04-17 00:13:00,0.0,1.9240,0.0009,403.41,0.39,235.9,37.1,138.10,28.81,24.62,36.34,0.04,-272.73,-272.74,-53,560,-914,23.9,4.7,-18.7,23.9,4.9,-18.3,5.73,2.27,-24.0,28.6
2012-04-17 00:14:00,0.0,1.9241,0.0009,403.32,0.41,245.4,26.4,138.09,28.83,24.62,36.35,0.04,-272.74,-272.74,-53,560,-914,23.9,4.7,-18.7,23.9,4.9,-18.3,5.73,2.28,-23.9,28.7
2012-04-17 00:15:00,0.0,1.9240,0.0008,403.39,0.35,257.8,26.1,138.09,28.85,24.61,36.35,0.04,-272.74,-272.74,-53,560,-914,24.0,4.7,-18.6,23.9,4.9,-18.2,5.73,2.33,-23.9,28.7
2012-04-17 00:16:00,0.0,1.9240,0.0009,403.38,0.43,260.6,34.5,138.09,28.87,24.62,36.35,0.04,-272.74,-272.74,-53,560,-914,24.0,4.7,-18.6,24.0,4.9,-18.2,5.73,2.38,-23.8,28.1
2012-04-17 00:17:00,0.0,1.9239,0.0010,403.38,0.37,256.5,31.2,138.09,28.88,24.62,36.35,0.04,-272.74,-272.74,-54,560,-915,24.0,4.7,-18.6,24.0,4.9,-18.2,5.73,2.22,-23.8,27.7
2012-04-17 00:18:00,0.0,1.9239,0.0008,403.35,0.42,246.9,33.9,138.10,28.89,24.62,36.35,0.04,-272.73,-272.74,-53,561,-914,24.0,4.7,-18.6,24.0,4.9,-18.2,5.73,2.40,-23.9,27.4
2012-04-17 00:19:00,0.0,1.9243,0.0009,403.36,0.39,242.2,35.2,138.10,28.90,24.62,36.35,0.04,-272.74,-272.74,-54,561,-915,24.0,4.7,-18.6,23.9,4.9,-18.2,5.73,2.25,-23.9,27.3
2012-04-17 00:20:00,0.0,1.9247,0.0009,403.44,0.44,232.0,34.4,138.10,28.90,24.62,36.34,0.04,-272.73,-272.73,-53,561,-915,24.0,4.8,-18.5,23.9,4.9,-18.1,5.73,2.36,-24.0,27.1
2012-04-17 00:21:00,0.0,1.9242,0.0009,403.34,0.39,226.9,30.9,138.11,28.90,24.62,36.35,0.04,-272.74,-272.74,-54,561,-915,24.0,4.8,-18.5,23.9,5.0,-18.1,5.73,2.32,-24.0,27.0
2012-04-17 00:22:00,0.0,1.9242,0.0009,403.33,0.39,217.6,32.3,138.11,28.90,24.62,36.35,0.04,-272.74,-272.74,-53,561,-915,23.9,4.8,-18.5,23.9,5.0,-18.1,5.73,2.29,-24.1,26.9
2012-04-17 00:23:00,0.0,1.9241,0.0010,403.28,0.37,219.3,39.1,138.11,28.89,24.62,36.35,0.04,-272.73,-272.74,-54,561,-915,23.9,4.8,-18.4,23.9,5.0,-18.1,5.73,2.37,-24.2,26.8
2012-04-17 00:24:00,0.0,1.9239,0.0008,403.15,0.43,214.7,28.9,138.11,28.89,24.62,36.35,0.04,-272.74,-272.74,-53,561,-915,23.9,4.8,-18.5,23.8,5.0,-18.1,5.73,2.25,-24.2,26.7
2012-04-17 00:25:00,0.0,1.9240,0.0009,403.30,0.39,209.0,31.4,138.12,28.88,24.62,36.35,0.04,-272.74,-272.74,-54,561,-915,23.9,4.8,-18.5,23.8,5.0,-18.1,5.73,2.41,-24.3,26.7
2012-04-17 00:26:00,0.0,1.9251,0.0009,403.41,0.37,208.9,37.6,138.12,28.86,24.62,36.34,0.04,-272.74,-272.74,-54,561,-915,23.9,4.8,-18.4,23.8,5.0,-18.1,5.73,2.21,-24.3,26.6
2012-04-17 00:27:00,0.0,1.9239,0.0009,403.27,0.36,207.7,26.5,138.12,28.85,24.62,36.35,0.04,-272.74,-272.73,-54,561,-915,23.9,4.8,-18.4,23.8,5.0,-18.0,5.73,2.43,-24.4,26.5
2012-04-17 00:28:00,0.0,1.9241,0.0008,403.32,0.41,207.8,37.2,138.12,28.84,24.62,36.34,0.04,-272.74,-272.74,-54,561,-915,23.8,4.8,-18.4,23.7,5.0,-18.1,5.73,2.22,-24.4,26.5
2012-04-17 00:29:00,0.0,1.9243,0.0009,403.06,0.39,188.7,40.0,138.12,28.83,24.62,36.35,0.04,-272.74,-272.74,-54,561,-915,23.8,4.8,-18.5,23.7,5.0,-18.1,5.73,2.41,-24.4,26.4
2012-04-17 00:30:00,0.0,1.9252,0.0009,403.12,0.37,193.8,37.3,138.13,28.81,24.62,36.35,0.04,-272.74,-272.74,-54,561,-915,23.8,4.8,-18.5,23.7,5.0,-18.1,5.73,2.24,-24.5,26.4
2012-04-17 00:31:00,0.0,1.9255,0.0011,403.18,0.37,193.3,30.6,138.13,28.80,24.62,36.34,0.04,-272.74,-272.74,-54,561,-915,23.8,4.8,-18.5,23.7,5.0,-18.2,5.73,2.37,-24.5,26.3
2012-04-17 00:32:00,0.0,1.9246,0.0010,403.16,0.34,185.8,29.1,138.13,28.79,24.62,36.35,0.04,-272.74,-272.74,-54,561,-915,23.8,4.8,-18.5,23.7,5.0,-18.1,5.73,2.28,-24.5,26.3
2012-04-17 00:33:00,0.0,1.9240,0.0009,403.14,0.38,190.8,31.9,138.13,28.78,24.62,36.34,0.04,-272.74,-272.73,-54,561,-915,23.7,4.9,-18.5,23.7,5.0,-18.1,5.73,2.33,-24.5,26.3
2012-04-17 00:34:00,0.0,1.9233,0.0010,403.08,0.40,190.1,32.1,138.13,28.77,24.62,36.35,0.04,-272.73,-272.73,-54,561,-915,23.7,4.8,-18.5,23.7,5.0,-18.2,5.73,2.36,-24.5,26.8
2012-04-17 00:35:00,0.0,1.9244,0.0011,403.17,0.39,199.1,33.8,138.12,28.76,24.62,36.34,0.04,-272.74,-272.74,-54,560,-915,23.8,4.9,-18.5,23.7,5.0,-18.1,5.73,2.26,-24.4,27.3
2012-04-17 00:36:00,0.0,1.9245,0.0013,403.12,0.42,199.2,38.3,138.12,28.76,24.62,36.34,0.04,-272.74,-272.74,-54,560,-915,23.8,4.8,-18.5,23.7,5.0,-18.1,5.73,2.28,-24.4,27.6
2012-04-17 00:37:00,0.0,1.9248,0.0010,403.11,0.36,226.3,32.0,138.11,28.77,24.62,36.34,0.04,-272.74,-272.74,-54,560,-915,23.8,4.8,-18.5,23.8,5.0,-18.1,5.73,2.30,-24.3,27.9
2012-04-17 00:38:00,0.0,1.9250,0.0008,403.21,0.46,222.0,38.2,138.11,28.78,24.62,36.34,0.04,-272.74,-272.74,-54,560,-915,23.9,4.7,-18.7,23.8,4.9,-18.2,5.73,2.31,-24.2,28.1
2012-04-17 00:39:00,0.0,1.9252,0.0009,403.03,0.42,233.8,29.0,138.10,28.79,24.62,36.34,0.04,-272.73,-272.74,-54,560,-914,23.9,4.7,-18.7,23.9,4.9,-18.3,5.73,2.32,-24.1,28.2
2012-04-17 00:40:00,0.0,1.9242,0.0013,403.10,0.44,236.5,31.4,138.10,28.80,24.62,36.35,0.04,-272.74,-272.74,-54,560,-914,23.9,4.7,-18.7,23.9,4.9,-18.3,5.73,2.32,-24.0,28.4
2012-04-17 00:41:00,0.0,1.9244,0.0008,403.10,0.38,245.4,31.3,138.10,28.82,24.62,36.35,0.04,-272.74,-272.74,-54,561,-914,24.0,4.7,-18.8,23.9,4.9,-18.4,5.73,2.36,-23.9,28.5
2012-04-17 00:42:00,0.0,1.9244,0.0009,403.20,0.38,252.2,28.9,138.09,28.84,24.62,36.35,0.04,-272.74,-272.74,-54,560,-914,24.0,4.7,-18.8,24.0,4.9,-18.3,5.73,2.32,-23.8,28.6
2012-04-17 00:43:00,0.0,1.9234,0.0010,403.34,0.47,256.9,29.7,138.09,28.86,24.62,36.35,0.04,-272.73,-272.73,-53,560,-914,24.1,4.7,-18.8,24.0,4.9,-18.3,5.73,2.26,-23.7,28.7
2012-04-17 00:44:00,0.0,1.9230,0.0008,403.21,0.40,263.3,28.0,138.09,28.88,24.62,36.35,0.04,-272.73,-272.74,-53,561,-914,24.1,4.6,-18.8,24.1,4.8,-18.3,5.73,2.26,-23.6,28.5
2012-04-17 00:45:00,0.0,1.9228,0.0009,403.27,0.35,271.3,34.4,138.09,28.90,24.62,36.35,0.04,-272.74,-272.74,-54,561,-915,24.1,4.6,-18.8,24.1,4.8,-18.4,5.73,2.40,-23.6,27.9
2012-04-17 00:46:00,0.0,1.9234,0.0008,403.36,0.43,268.4,29.8,138.09,28.92,24.62,36.35,0.04,-272.74,-272.74,-53,561,-915,24.1,4.6,-18.8,24.1,4.8,-18.4,5.73,2.23,-23.6,27.7
2012-04-17 00:47:00,0.0,1.9240,0.0009,403.28,0.37,259.8,34.5,138.10,28.93,24.62,36.35,0.04,-272.73,-272.74,-54,561,-915,24.1,4.7,-18.7,24.1,4.9,-18.3,5.73,2.37,-23.7,27.4
2012-04-17 00:48:00,0.0,1.9241,0.0010,403.30,0.48,250.5,30.0,138.10,28.93,24.62,36.35,0.04,-272.73,-272.74,-53,562,-915,24.1,4.7,-18.7,24.0,4.9,-18.3,5.73,2.30,-23.8,27.1
2012-04-17 00:49:00,0.0,1.9245,0.0010,403.27,0.36,260.7,32.4,138.10,28.94,24.62,36.35,0.04,-272.74,-272.74,-54,561,-915,24.1,4.7,-18.6,24.0,4.9,-18.2,5.73,2.30,-23.8,27.0
2012-04-17 00:50:00,0.0,1.9248,0.0008,403.26,0.41,251.0,32.1,138.11,28.94,24.62,36.35,0.04,-272.73,-272.74,-54,562,-915,24.1,4.7,-18.6,24.0,4.9,-18.2,5.73,2.36,-23.9,27.0
2012-04-17 00:51:00,0.0,1.9245,0.0010,403.24,0.46,240.8,32.6,138.11,28.93,24.62,36.35,0.04,-272.74,-272.73,-54,562,-915,24.1,4.7,-18.6,23.9,4.9,-18.2,5.73,2.24,-23.9,26.9
2012-04-17 00:52:00,0.0,1.9241,0.0008,403.30,0.38,232.2,36.4,138.11,28.93,24.62,36.34,0.04,-272.74,-272.74,-54,562,-915,24.1,4.7,-18.6,23.9,4.9,-18.2,5.73,2.41,-24.0,26.9
2012-04-17 00:53:00,0.0,1.9246,0.0009,403.22,0.35,226.6,33.2,138.11,28.92,24.62,36.35,0.04,-272.74,-272.74,-54,562,-915,24.0,4.7,-18.5,23.9,4.9,-18.2,5.73,2.21,-24.0,26.8
2012-04-17 00:54:00,0.0,1.9248,0.0008,403.24,0.39,230.9,32.0,138.11,28.91,24.62,36.34,0.04,-272.73,-272.74,-54,562,-915,24.0,4.8,-18.6,23.9,4.9,-18.2,5.73,2.42,-24.1,26.8
2012-04-17 00:55:00,0.0,1.9246,0.0009,403.05,0.37,225.5,37.0,138.12,28.90,24.62,36.35,0.04,-272.74,-272.74,-54,562,-915,24.0,4.8,-18.5,23.9,5.0,-18.1,5.73,2.22,-24.1,26.6
2012-04-17 00:56:00,0.0,1.9250,0.0011,403.21,0.33,230.2,31.5,138.12,28.89,24.62,36.35,0.04,-272.74,-272.74,-54,562,-915,24.0,4.8,-18.4,23.9,5.0,-18.1,5.73,2.39,-24.1,26.6
2012-04-17 00:57:00,0.0,1.9246,0.0010,403.11,0.32,214.5,32.6,138.12,28.88,24.62,36.35,0.04,-272.73,-272.73,-54,561,-915,24.0,4.9,-18.3,23.9,5.0,-18.0,5.73,2.27,-24.1,26.5
2012-04-17 00:58:00,0.0,1.9246,0.0009,403.19,0.38,213.3,32.5,138.12,28.87,24.62,36.35,0.04,-272.74,-272.74,-54,562,-915,24.0,4.9,-18.2,23.9,5.1,-17.9,5.73,2.32,-24.2,26.5
2012-04-17 00:59:00,0.0,1.9244,0.0010,403.14,0.41,209.8,30.9,138.12,28.86,24.62,36.35,0.04,-272.74,-272.73,-55,561,-915,23.9,4.9,-18.2,23.8,5.1,-17.9,5.73,2.35,-24.2,26.5
2012-04-17 01:00:00,0.0,1.9243,0.0008,403.14,0.37,209.7,37.1,138.12,28.85,24.62,36.35,0.04,-272.73,-272.74,-54,562,-915,23.9,4.9,-18.3,23.8,5.0,-18.0,5.73,2.25,-24.2,26.4
2012-04-17 01:01:00,0.0,1.9240,0.0009,403.14,0.39,193.5,30.8,138.12,28.84,24.62,36.35,0.04,-272.73,-272.74,-55,561,-915,23.9,4.9,-18.4,23.8,5.0,-18.1,5.73,2.41,-24.2,26.4
2012-04-17 01:02:00,0.0,1.9235,0.0009,403.09,0.33,213.0,29.6,138.13,28.83,24.62,36.35,0.04,-272.74,-272.74,-54,561,-915,23.9,4.8,-18.4,23.8,5.0,-18.1,5.73,2.21,-24.2,26.3
2012-04-17 01:03:00,0.0,1.9226,0.0009,403.18,0.40,208.3,32.2,138.13,28.82,24.62,36.34,0.04,-272.74,-272.73,-55,561,-915,23.9,4.8,-18.5,23.8,5.0,-18.2,5.73,2.42,-24.3,26.3
2012-04-17 01:04:00,0.0,1.9225,0.0012,403.03,0.40,201.1,37.0,138.13,28.81,24.62,36.34,0.04,-272.73,-272.73,-54,561,-915,23.9,4.8,-18.5,23.8,5.0,-18.2,5.73,2.23,-24.3,26.4
2012-04-17 01:05:00,0.0,1.9225,0.0008,403.10,0.35,202.8,29.9,138.13,28.80,24.62,36.35,0.04,-272.74,-272.74,-55,561,-915,23.9,4.8,-18.5,23.8,5.0,-18.1,5.73,2.32,-24.3,27.0
2012-04-17 01:06:00,0.0,1.9235,0.0009,403.03,0.47,209.6,30.2,138.12,28.80,24.62,36.35,0.04,-272.73,-272.74,-54,561,-915,23.9,4.8,-18.5,23.8,5.0,-18.1,5.73,2.36,-24.2,27.5
2012-04-17 01:07:00,0.0,1.9232,0.0010,403.19,0.41,217.2,31.3,138.12,28.80,24.62,36.35,0.04,-272.74,-272.74,-54,561,-914,23.9,4.8,-18.5,23.8,5.0,-18.1,5.73,2.33,-24.1,27.8
2012-04-17 01:08:00,0.0,1.9238,0.0009,403.20,0.44,216.3,34.3,138.11,28.80,24.62,36.35,0.04,-272.74,-272.74,-54,561,-914,23.9,4.8,-18.5,23.9,5.0,-18.1,5.73,2.31,-24.1,28.0
2012-04-17 01:09:00,0.0,1.9242,0.0009,403.14,0.38,228.8,32.6,138.11,28.81,24.62,36.35,0.04,-272.74,-272.74,-54,561,-914,24.0,4.8,-18.4,23.9,5.0,-18.0,5.73,2.30,-23.9,28.2
2012-04-17 01:10:00,0.0,1.9248,0.0009,403.16,0.42,246.5,37.2,138.10,28.83,24.62,36.35,0.04,-272.74,-272.74,-54,561,-914,24.0,4.8,-18.4,24.0,5.0,-18.0,5.73,2.30,-23.9,28.3
2012-04-17 01:11:00,0.0,1.9247,0.0010,403.21,0.40,250.2,33.0,138.10,28.84,24.62,36.35,0.04,-272.73,-272.74,-54,561,-914,24.1,4.8,-18.5,24.0,5.0,-18.0,5.73,2.28,-23.8,28.5
2012-04-17 01:12:00,0.0,1.9244,0.0009,403.35,0.39,265.0,32.3,138.09,28.86,24.62,36.35,0.04,-272.74,-272.74,-54,561,-914,24.1,4.8,-18.5,24.0,5.0,-18.0,5.73,2.27,-23.7,28.6
2012-04-17 01:13:00,0.0,1.9248,0.0009,403.42,0.41,270.3,33.2,138.09,28.89,24.62,36.35,0.04,-272.73,-272.74,-54,561,-914,24.2,4.8,-18.4,24.1,5.0,-18.0,5.73,2.32,-23.6,28.7
2012-04-17 01:14:00,0.0,1.9244,0.0011,403.38,0.39,271.9,34.5,138.09,28.91,24.62,36.35,0.04,-272.74,-272.73,-54,561,-914,24.2,4.8,-18.4,24.1,5.0,-17.9,5.73,2.36,-23.5,28.7
2012-04-17 01:15:00,0.0,1.9238,0.0011,403.53,0.38,278.9,31.7,138.09,28.93,24.62,36.35,0.04,-272.74,-272.74,-54,561,-915,24.2,4.7,-18.5,24.2,5.0,-18.0,5.73,2.29,-23.4,28.2
2012-04-17 01:16:00,0.0,1.9234,0.0009,403.42,0.38,286.6,28.8,138.09,28.95,24.62,36.35,0.04,-272.74,-272.74,-54,562,-915,24.2,4.7,-18.5,24.2,4.9,-18.0,5.73,2.27,-23.4,27.9
2012-04-17 01:17:00,0.0,1.9230,0.0010,403.53,0.40,280.0,25.1,138.09,28.97,24.62,36.34,0.04,-272.74,-272.73,-55,561,-915,24.2,4.7,-18.5,24.1,5.0,-18.0,5.73,2.39,-23.5,27.6
2012-04-17 01:18:00,0.0,1.9234,0.0008,403.30,0.35,274.7,33.2,138.09,28.98,24.62,36.35,0.04,-272.73,-272.74,-54,562,-915,24.2,4.7,-18.4,24.1,5.0,-17.9,5.73,2.22,-23.5,27.4
2012-04-17 01:19:00,0.0,1.9236,0.0008,403.37,0.41,275.4,29.0,138.10,28.98,24.62,36.35,0.04,-272.74,-272.74,-55,562,-915,24.2,4.8,-18.4,24.1,5.0,-17.9,5.73,2.41,-23.6,27.3
2012-04-17 01:20:00,0.0,1.9239,0.0008,403.30,0.40,263.6,30.1,138.10,28.99,24.62,36.35,0.04,-272.74,-272.73,-54,562,-915,24.2,4.8,-18.3,24.1,5.0,-17.9,5.73,2.21,-23.6,27.2
2012-04-17 01:21:00,0.0,1.9245,0.0008,403.31,0.46,261.7,27.8,138.10,28.99,24.62,36.35,0.04,-272.74,-272.74,-55,563,-915,24.2,4.8,-18.3,24.1,5.0,-17.9,5.73,2.40,-23.7,27.1
2012-04-17 01:22:00,0.0,1.9245,0.0009,403.21,0.45,265.1,32.8,138.10,28.99,24.62,36.36,0.04,-272.74,-272.74,-54,563,-915,24.2,4.8,-18.4,24.1,5.0,-17.9,5.73,2.26,-23.7,27.1
2012-04-17 01:23:00,0.0,1.9244,0.0009,403.24,0.36,250.7,32.2,138.11,28.99,24.62,36.35,0.04,-272.74,-272.74,-55,562,-915,24.2,4.8,-18.3,24.1,5.0,-17.9,5.73,2.31,-23.7,27.0
2012-04-17 01:24:00,0.0,1.9245,0.0007,403.28,0.42,249.5,24.2,138.11,28.98,24.62,36.35,0.04,-272.73,-272.73,-54,563,-915,24.2,4.8,-18.3,24.1,5.0,-17.9,5.73,2.36,-23.8,26.9
2012-04-17 01:25:00,0.0,1.9241,0.0010,403.33,0.37,240.8,30.5,138.11,28.97,24.62,36.35,0.04,-272.74,-272.74,-55,563,-915,24.1,4.8,-18.2,24.1,5.0,-17.8,5.73,2.23,-23.8,26.8
2012-04-17 01:26:00,0.0,1.9233,0.0009,403.26,0.49,232.9,30.0,138.11,28.97,24.62,36.35,0.04,-272.74,-272.74,-54,562,-915,24.1,4.8,-18.2,24.0,5.0,-17.9,5.73,2.41,-23.8,26.8
2012-04-17 01:27:00,0.0,1.9227,0.0007,403.19,0.34,244.2,33.2,138.11,28.96,24.62,36.35,0.04,-272.74,-272.73,-55,563,-915,24.1,4.9,-18.2,24.0,5.0,-17.9,5.73,2.22,-23.8,26.9
2012-04-17 01:28:00,0.0,1.9230,0.0010,403.34,0.29,236.2,28.3,138.11,28.95,24.62,36.35,0.04,-272.73,-272.74,-54,562,-915,24.1,4.9,-18.1,24.0,5.1,-17.8,5.73,2.37,-23.9,26.9
2012-04-17 01:29:00,0.0,1.9230,0.0010,403.26,0.42,234.6,34.9,138.11,28.95,24.62,36.35,0.04,-272.74,-272.74,-55,563,-915,24.1,4.9,-18.0,24.0,5.1,-17.7,5.73,2.31,-23.9,26.9
2012-04-17 01:30:00,0.0,1.9231,0.0009,403.22,0.39,235.7,32.2,138.12,28.94,24.62,36.34,0.04,-272.73,-272.74,-54,563,-915,24.1,4.9,-18.1,24.0,5.1,-17.7,5.73,2.26,-23.9,26.8
2012-04-17 01:31:00,0.0,1.9221,0.0009,403.05,0.38,229.8,32.6,138.12,28.93,24.62,36.35,0.04,-272.73,-272.74,-55,563,-915,24.1,4.9,-18.1,24.0,5.1,-17.8,5.73,2.40,-23.9,26.8
2012-04-17 01:32:00,0.0,1.9215,0.0009,403.08,0.35,231.4,32.0,138.12,28.92,24.62,36.35,0.04,-272.74,-272.74,-55,562,-915,24.1,4.9,-18.2,24.0,5.1,-17.8,5.73,2.21,-23.9,26.9
2012-04-17 01:33:00,0.0,1.9215,0.0009,402.97,0.42,237.3,31.8,138.12,28.91,24.62,36.35,0.04,-272.74,-272.74,-55,563,-915,24.1,4.9,-18.2,24.0,5.1,-17.8,5.73,2.38,-23.9,26.8
2012-04-17 01:34:00,0.0,1.9214,0.0011,403.02,0.41,228.3,33.9,138.12,28.90,24.62,36.35,0.04,-272.74,-272.73,-55,562,-915,24.1,4.9,-18.2,24.0,5.1,-17.8,5.73,2.29,-23.9,26.8
2012-04-17 01:35:00,0.0,1.9199,0.0010,403.06,0.34,226.4,33.8,138.12,28.90,24.62,36.34,0.04,-272.74,-272.74,-55,562,-915,24.1,4.8,-18.3,24.0,5.0,-17.9,5.73,2.27,-23.9,26.7
2012-04-17 01:36:00,0.0,1.9196,0.0007,403.04,0.39,226.5,28.8,138.12,28.89,24.62,36.34,0.04,-272.74,-272.74,-55,562,-915,24.1,4.8,-18.4,23.9,5.0,-18.1,5.73,2.40,-23.9,26.8
2012-04-17 01:37:00,0.0,1.9195,0.0009,402.95,0.35,224.6,32.4,138.12,28.88,24.62,36.34,0.04,-272.73,-272.74,-54,562,-915,24.1,4.8,-18.4,23.9,5.0,-18.1,5.73,2.21,-24.0,26.8
2012-04-17 01:38:00,0.0,1.9194,0.0008,403.07,0.38,219.3,33.0,138.12,28.88,24.62,36.34,0.04,-272.74,-272.73,-55,562,-915,24.1,4.8,-18.4,23.9,5.0,-18.0,5.73,2.38,-24.0,26.6
2012-04-17 01:39:00,0.0,1.9187,0.0008,402.81,0.38,217.1,31.8,138.12,28.87,24.62,36.34,0.04,-272.74,-272.74,-54,563,-915,24.0,4.8,-18.5,23.9,5.0,-18.1,5.73,2.29,-24.0,26.7
2012-04-17 01:40:00,0.0,1.9191,0.0009,402.87,0.47,220.5,32.8,138.12,28.86,24.62,36.35,0.04,-272.74,-272.74,-55,562,-915,24.0,4.8,-18.4,23.9,5.0,-18.0,5.73,2.26,-24.0,26.8
2012-04-17 01:41:00,0.0,1.9184,0.0010,402.76,0.42,219.0,31.1,138.12,28.86,24.62,36.34,0.04,-272.74,-272.74,-55,562,-915,24.0,4.8,-18.5,23.9,5.0,-18.1,5.73,2.38,-23.9,27.4
2012-04-17 01:42:00,0.0,1.9192,0.0009,402.89,0.35,230.7,31.6,138.11,28.86,24.62,36.35,0.04,-272.74,-272.74,-54,562,-915,24.0,4.8,-18.4,24.0,5.0,-18.0,5.73,2.33,-23.9,27.8
2012-04-17 01:43:00,0.0,1.9191,0.0010,402.82,0.41,241.9,32.0,138.11,28.87,24.62,36.35,0.04,-272.74,-272.74,-55,562,-915,24.1,4.8,-18.4,24.0,5.0,-18.0,5.73,2.30,-23.8,28.1
2012-04-17 01:44:00,0.0,1.9196,0.0009,402.82,0.41,245.7,34.6,138.10,28.88,24.62,36.35,0.04,-272.73,-272.74,-55,562,-915,24.1,4.8,-18.3,24.1,5.0,-17.9,5.73,2.29,-23.7,28.3
2012-04-17 01:45:00,0.0,1.9195,0.0010,402.80,0.40,261.5,30.6,138.10,28.89,24.62,36.35,0.04,-272.74,-272.74,-55,562,-914,24.2,4.8,-18.2,24.1,5.0,-17.8,5.73,2.29,-23.6,28.5
2012-04-17 01:46:00,0.0,1.9197,0.0011,403.07,0.38,277.8,35.4,138.09,28.91,24.62,36.34,0.04,-272.74,-272.74,-54,562,-915,24.2,4.8,-18.3,24.1,5.0,-17.8,5.73,2.28,-23.5,28.6
2012-04-17 01:47:00,0.0,1.9200,0.0008,403.10,0.38,276.3,30.4,138.09,28.93,24.62,36.34,0.04,-272.73,-272.73,-54,562,-915,24.3,4.8,-18.3,24.2,5.0,-17.8,5.73,2.28,-23.4,28.8
2012-04-17 01:48:00,0.0,1.9190,0.0010,403.26,0.41,278.5,34.4,138.09,28.95,24.62,36.35,0.04,-272.74,-272.74,-54,562,-914,24.3,4.7,-18.4,24.3,4.9,-17.9,5.73,2.33,-23.3,28.9
2012-04-17 01:49:00,0.0,1.9188,0.0009,403.28,0.36,289.1,36.9,138.08,28.98,24.62,36.34,0.04,-272.74,-272.74,-54,562,-915,24.3,4.8,-18.3,24.3,5.0,-17.9,5.73,2.35,-23.3,29.0
2012-04-17 01:50:00,0.0,1.9183,0.0009,403.11,0.43,295.1,33.7,138.08,29.00,24.62,36.35,0.04,-272.74,-272.74,-55,562,-914,24.4,4.7,-18.3,24.3,4.9,-17.9,5.73,2.32,-23.2,28.6
2012-04-17 01:51:00,0.0,1.9184,0.0010,403.22,0.33,289.4,36.4,138.08,29.02,24.62,36.34,0.04,-272.73,-272.74,-54,563,-915,24.4,4.7,-18.4,24.4,4.9,-18.0,5.73,2.22,-23.2,28.1
2012-04-17 01:52:00,0.0,1.9187,0.0010,403.30,0.35,293.2,34.2,138.09,29.04,24.62,36.34,0.04,-272.74,-272.74,-55,563,-915,24.4,4.7,-18.4,24.3,4.9,-17.9,5.73,2.41,-23.2,27.9
2012-04-17 01:53:00,0.0,1.9191,0.0008,403.18,0.40,294.2,31.9,138.09,29.05,24.62,36.35,0.04,-272.74,-272.74,-54,563,-915,24.4,4.7,-18.4,24.3,4.9,-17.9,5.73,2.20,-23.2,27.7
2012-04-17 01:54:00,0.0,1.9185,0.0009,403.12,0.31,292.8,28.2,138.09,29.06,24.62,36.35,0.04,-272.73,-272.73,-55,563,-915,24.4,4.7,-18.5,24.3,4.9,-18.0,5.73,2.40,-23.3,27.6
2012-04-17 01:55:00,0.0,1.9192,0.0009,403.10,0.39,282.2,32.5,138.09,29.06,24.62,36.35,0.04,-272.73,-272.73,-54,563,-915,24.4,4.7,-18.5,24.3,4.9,-18.0,5.73,2.24,-23.3,27.5
2012-04-17 01:56:00,0.0,1.9190,0.0009,403.18,0.39,287.2,27.0,138.10,29.06,24.62,36.34,0.04,-272.74,-272.74,-55,564,-915,24.4,4.7,-18.4,24.3,4.9,-17.9,5.73,2.33,-23.3,27.4
2012-04-17 01:57:00,0.0,1.9185,0.0009,402.94,0.34,285.2,34.1,138.10,29.06,24.62,36.35,0.04,-272.74,-272.74,-54,564,-915,24.4,4.7,-18.5,24.3,4.8,-18.1,5.73,2.35,-23.4,27.4
2012-04-17 01:58:00,0.0,1.9192,0.0008,403.00,0.38,286.7,29.4,138.10,29.06,24.62,36.35,0.04,-272.74,-272.74,-55,564,-915,24.4,4.7,-18.4,24.3,4.9,-18.1,5.73,2.23,-23.4,27.3
2012-04-17 01:59:00,0.0,1.9188,0.0009,403.08,0.37,276.0,35.9,138.10,29.06,24.62,36.34,0.04,-272.74,-272.74,-54,564,-916,24.4,4.7,-18.5,24.3,4.9,-18.0,5.73,2.41,-23.5,27.2
2012-04-17 02:00:00,0.0,1.9192,0.0009,402.98,0.34,278.5,33.3,138.10,29.06,24.62,36.35,0.04,-272.74,-272.74,-55,564,-915,24.4,4.7,-18.5,24.3,4.9,-18.0,5.73,2.23,-23.5,27.3
2012-04-17 02:01:00,0.0,1.9188,0.0009,402.90,0.44,266.6,34.5,138.10,29.05,24.62,36.35,0.04,-272.74,-272.74,-55,564,-915,24.4,4.7,-18.4,24.3,4.9,-18.0,5.73,2.32,-23.5,27.3
2012-04-17 02:02:00,0.0,1.9177,0.0009,402.80,0.41,268.6,32.0,138.11,29.05,24.62,36.34,0.04,-272.74,-272.74,-55,564,-916,24.4,4.7,-18.5,24.3,4.9,-18.0,5.73,2.36,-23.5,27.2
2012-04-17 02:03:00,0.0,1.9176,0.0008,402.74,0.44,259.6,31.2,138.11,29.05,24.62,36.35,0.04,-272.74,-272.74,-55,564,-915,24.4,4.7,-18.5,24.3,4.8,-18.1,5.73,2.22,-23.5,27.2
2012-04-17 02:04:00,0.0,1.9176,0.0007,402.70,0.44,259.5,31.4,138.11,29.04,24.62,36.35,0.04,-272.74,-272.74,-54,564,-916,24.4,4.6,-18.6,24.3,4.8,-18.2,5.73,2.39,-23.5,27.1
2012-04-17 02:05:00,0.0,1.9176,0.0007,402.74,0.39,266.5,33.6,138.11,29.04,24.62,36.34,0.04,-272.73,-272.73,-55,564,-915,24.4,4.7,-18.4,24.3,4.9,-18.0,5.73,2.29,-23.6,27.1
2012-04-17 02:06:00,0.0,1.9179,0.0008,402.68,0.36,247.7,35.4,138.11,29.03,24.62,36.35,0.04,-272.74,-272.74,-54,564,-915,24.3,4.7,-18.5,24.2,4.9,-18.1,5.73,2.25,-23.6,27.1
2012-04-17 02:07:00,0.0,1.9184,0.0007,402.79,0.40,259.7,33.1,138.11,29.03,24.62,36.35,0.04,-272.74,-272.74,-55,564,-915,24.4,4.7,-18.4,24.3,4.9,-18.0,5.73,2.41,-23.6,27.1
2012-04-17 02:08:00,0.0,1.9201,0.0012,402.84,0.43,251.8,30.7,138.11,29.02,24.62,36.35,0.04,-272.74,-272.74,-55,564,-915,24.3,4.8,-18.3,24.2,4.9,-17.9,5.73,2.24,-23.6,27.0
2012-04-17 02:09:00,0.0,1.9198,0.0010,402.74,0.38,264.8,32.8,138.11,29.01,24.62,36.35,0.04,-272.74,-272.74,-54,564,-916,24.3,4.8,-18.3,24.2,4.9,-17.9,5.73,2.32,-23.6,27.0
2012-04-17 02:10:00,0.0,1.9188,0.0010,402.80,0.41,247.4,30.3,138.11,29.01,24.62,36.34,0.04,-272.74,-272.74,-55,564,-915,24.3,4.8,-18.3,24.2,4.9,-17.9,5.73,2.38,-23.6,27.1
2012-04-17 02:11:00,0.0,1.9204,0.0010,402.91,0.42,247.1,31.9,138.11,29.00,24.62,36.35,0.04,-272.74,-272.74,-54,564,-915,24.3,4.8,-18.2,24.2,5.0,-17.8,5.73,2.22,-23.6,27.1
2012-04-17 02:12:00,0.0,1.9211,0.0010,403.00,0.43,243.3,37.1,138.12,29.00,24.62,36.34,0.04,-272.73,-272.74,-55,564,-916,24.3,4.8,-18.1,24.2,5.1,-17.7,5.73,2.36,-23.7,27.0
2012-04-17 02:13:00,0.0,1.9203,0.0010,402.81,0.45,246.4,33.9,138.12,28.99,24.62,36.35,0.04,-272.74,-272.74,-55,563,-915,24.3,4.9,-18.1,24.2,5.1,-17.6,5.73,2.34,-23.7,26.9
2012-04-17 02:14:00,0.0,1.9194,0.0010,402.70,0.40,239.7,33.5,138.12,28.99,24.62,36.35,0.04,-272.74,-272.74,-55,564,-916,24.3,4.8,-18.1,24.2,5.1,-17.7,5.73,2.22,-23.6,26.9
2012-04-17 02:15:00,0.0,1.9186,0.0010,402.79,0.40,242.2,28.8,138.12,28.98,24.62,36.35,0.04,-272.73,-272.74,-55,564,-915,24.3,4.8,-18.2,24.2,5.1,-17.7,5.73,2.38,-23.7,26.9
2012-04-17 02:16:00,0.0,1.9181,0.0009,402.63,0.41,250.2,29.8,138.12,28.98,24.62,36.35,0.04,-272.74,-272.74,-54,564,-915,24.3,4.7,-18.4,24.2,5.0,-17.8,5.73,2.31,-23.7,27.0